Location: Praha
(50.0830°N, 14.4670°E)
Time: 03:25:50
(UTC+02:00)

ISS - Pass Details

Date: 16 May 2024
Orbit: 409 x 414 km, 51.6° (Epoch: 23 May)

Event Time Altitude Azimuth Distance (km) Brightness Sun altitude
Rises 23:28:46 0° 282° (WNW) 2,350 0.5 -17.8°
Reaches altitude 10° 23:30:52 10° 284° (WNW) 1,485 -0.5 -17.9°
Maximum altitude 23:34:12 74° 9° (N) 433 -3.7 -18.1°
Enters shadow 23:35:30 34° 89° (E) 703 -2.8 -18.2°
